Volver al catálogo

STARLINK-36674

ActivoComunicacionesSSO
NORAD 67661·PAYLOAD·🇺🇸 United States

Lanzado Feb 2, 2026 desde Vandenberg Space Force Base

Loading…

Próximos Pases (próximas 24 horas)

TLE

ActualizadoSource: CelesTrak SupGP

Época: Sep 14, 2026, 23:13 UTC

1 67661C 26022P   26257.96784722  .00041624  00000+0  12921-2 0  2575
2 67661  97.2841 289.6451 0001399  86.5400 196.8763 15.33417583    10

Sigue STARLINK-36674 en tiempo real con AllMySat

Download on the App Store